sat.trackr.live / text

‹ back to catalog

CHECKMATE 10

NORAD 57762 · 2023-133F

PAYLOAD ACTIVE UNKNOWN

§ Identity

Operator
Country
US
Launch date
2023-09-02
Launch site
AFWTR
Launch vehicle
Mass (kg)
RCS (m²)

External: N2YO · Heavens-Above · Gunter

§ Orbital elements

Epoch: 2026-05-25T02:03:58.896576Z

Period
103.94 min
Inclination
81.0020°
Eccentricity
0.0007337
Mean motion
13.85472459 rev/d
Perigee alt
939.2 km
Apogee alt
949.9 km
Semi-major
7,322.7 km
B*
2.4378e-5
RAAN
29.5887°
Arg perigee
71.5854°
Mean anomaly
288.6100°
Rev number
13,783

§ Raw data

CHECKMATE 101 57762U 23133F   26145.08609834  .00000039  00000+0  24378-4 0  99942 57762  81.0020  29.5887 0007337  71.5854 288.6100 13.85472459137834

JSON: /api/v1/satellites/57762 · /tle

For live sub-satellite position, see the globe view (requires WebGL).

§ Visibility from observer

Set your observer location to see the next 7 days of passes ≥ 10°. The values pass through the URL so the page stays shareable.

No JS? Fill the form by hand. The geolocation button needs JavaScript.